Estación de Chanco INIA

Ultimos registro cada 15 minutos 69
Estación Fecha / Hora Temperatura Humedad Lluvia Velocidad Dirección Radiación Presion
69 Chanco INIA 02-05-2026 17:00 13,2 72,9 0 3,2 252 171 1002
68 Chanco INIA 02-05-2026 16:45 15,1 68,1 0 1,4 258 212 1002
67 Chanco INIA 02-05-2026 16:30 15,8 60,4 0 0 0 254 1002
66 Chanco INIA 02-05-2026 16:15 15,6 60,9 0 0 0 293 1002
65 Chanco INIA 02-05-2026 16:00 15,2 62,2 0 0 0 329 1002
64 Chanco INIA 02-05-2026 15:45 14,8 63,5 0 0,2 236 365 1003
63 Chanco INIA 02-05-2026 15:30 15 62,8 0 2 237 400 1002
62 Chanco INIA 02-05-2026 15:15 16 62,1 0 2,6 256 432 1002
61 Chanco INIA 02-05-2026 15:00 17 53,6 0 1 255 463 1002
60 Chanco INIA 02-05-2026 14:45 17,1 52,5 0 1,2 272 490 1002
59 Chanco INIA 02-05-2026 14:30 17,4 48,6 0 1,4 270 514 1002
58 Chanco INIA 02-05-2026 14:15 17,6 46,4 0 0,4 251 534 1002
57 Chanco INIA 02-05-2026 14:00 17,4 41,1 0 0,1 240 551 1002
56 Chanco INIA 02-05-2026 13:45 17,4 38,4 0 0,5 252 567 1002
55 Chanco INIA 02-05-2026 13:30 17,6 40 0 0,3 246 581 1002
54 Chanco INIA 02-05-2026 13:15 17,7 40,5 0 0 0 587 1003
53 Chanco INIA 02-05-2026 13:00 17,6 39,2 0 0 0 590 1003
52 Chanco INIA 02-05-2026 12:45 17,7 42,6 0 0 0 590 1003
51 Chanco INIA 02-05-2026 12:30 17,3 43 0 0 0 588 1003
50 Chanco INIA 02-05-2026 12:15 17,4 44,9 0 0,1 234 582 1003
49 Chanco INIA 02-05-2026 12:00 17,2 43,5 0 0 0 574 1003
48 Chanco INIA 02-05-2026 11:45 16,2 43,1 0 0 0 562 1004
47 Chanco INIA 02-05-2026 11:30 15,4 45,2 0 0 0 545 1004
46 Chanco INIA 02-05-2026 11:15 15,4 45,7 0 0 0 526 1004
45 Chanco INIA 02-05-2026 11:00 15,1 48,3 0 0 0 503 1004
44 Chanco INIA 02-05-2026 10:45 15,3 43 0 0,2 255 478 1004
43 Chanco INIA 02-05-2026 10:30 16,3 45,4 0 0 0 452 1004
42 Chanco INIA 02-05-2026 10:15 15,6 33,2 0 0 0 422 1004
41 Chanco INIA 02-05-2026 10:00 14,5 36,6 0 0 0 388 1004
40 Chanco INIA 02-05-2026 09:45 14,2 37,5 0 0 0 351 1004
39 Chanco INIA 02-05-2026 09:30 14,4 37,2 0 0 0 305 1005
38 Chanco INIA 02-05-2026 09:15 13,4 39,2 0 0 0 273 1005
37 Chanco INIA 02-05-2026 09:00 12 45 0 0 0 232 1005
36 Chanco INIA 02-05-2026 08:45 9,8 52,8 0 0 0 191 1005
35 Chanco INIA 02-05-2026 08:30 8,2 54,7 0 0 0 148 1005
34 Chanco INIA 02-05-2026 08:15 6,5 56,3 0 0 0 110 1005
33 Chanco INIA 02-05-2026 08:00 4,9 61,6 0 0 0 38 1004
32 Chanco INIA 02-05-2026 07:45 4,7 59,5 0 0 0 7 1004
31 Chanco INIA 02-05-2026 07:30 4,7 63 0 0,2 101 3 1004
30 Chanco INIA 02-05-2026 07:15 4,7 69,6 0 0,1 94 0 1004
29 Chanco INIA 02-05-2026 07:00 5,1 68,3 0 0,1 80 0 1004
28 Chanco INIA 02-05-2026 06:45 4,8 72,8 0 0 0 0 1005
27 Chanco INIA 02-05-2026 06:30 5,4 68,6 0 0 0 0 1005
26 Chanco INIA 02-05-2026 06:15 5,1 69 0 0 0 0 1005
25 Chanco INIA 02-05-2026 06:00 4,2 75,3 0 0 0 0 1005
24 Chanco INIA 02-05-2026 05:45 5,8 71,2 0 0 0 0 1005
23 Chanco INIA 02-05-2026 05:30 6,4 69,6 0 0 0 0 1005
22 Chanco INIA 02-05-2026 05:15 6,7 66,2 0 0 0 0 1005
21 Chanco INIA 02-05-2026 05:00 7,2 69 0 0 0 0 1005
20 Chanco INIA 02-05-2026 04:45 6,8 67,5 0 0 0 0 1006
19 Chanco INIA 02-05-2026 04:30 7,3 67,8 0 0 0 0 1006
18 Chanco INIA 02-05-2026 04:15 8,4 60,7 0 0 0 0 1006
17 Chanco INIA 02-05-2026 04:00 9,4 60,8 0 0 0 0 1006
16 Chanco INIA 02-05-2026 03:45 11,1 52,8 0 0 0 0 1006
15 Chanco INIA 02-05-2026 03:30 12,2 43,9 0 1 141 0 1006
14 Chanco INIA 02-05-2026 03:15 11,8 41,9 0 1,8 132 0 1006
13 Chanco INIA 02-05-2026 03:00 11,5 48,2 0 1,2 123 0 1006
12 Chanco INIA 02-05-2026 02:45 11 51,5 0 0,7 109 0 1007
11 Chanco INIA 02-05-2026 02:30 10,9 49,4 0 0 0 0 1007
10 Chanco INIA 02-05-2026 02:15 10,7 48,1 0 0 0 0 1007
9 Chanco INIA 02-05-2026 02:00 10,1 47,9 0 0 0 0 1007
8 Chanco INIA 02-05-2026 01:45 10,3 50 0 0 0 0 1007
7 Chanco INIA 02-05-2026 01:30 10,8 46,4 0 0 0 0 1007
6 Chanco INIA 02-05-2026 01:15 11 47,6 0 0,4 104 0 1007
5 Chanco INIA 02-05-2026 01:00 11,5 49,7 0 0,4 115 0 1008
4 Chanco INIA 02-05-2026 00:45 11,5 48,4 0 0,8 138 0 1008
3 Chanco INIA 02-05-2026 00:30 11,5 52,6 0 0 144 0 1008
2 Chanco INIA 02-05-2026 00:15 12,1 48,5 0 0,6 142 0 1008
1 Chanco INIA 02-05-2026 00:00 12,1 51,3 0 0,1 141 0 1008